Location: Recife
(8.0585°S, 34.8848°W)
Time: 21:28:51
(UTC-03:00)

Explorer 11/Cluster Stage 4 - Pass Details

Date: 21 April 2026
Orbit: 463 x 1174 km, 28.8° (Epoch: 16 May)

Event Time Altitude Azimuth Distance (km) Brightness Sun altitude
Rises 02:40:34 0° 232° (SW) 2,481 - -40.1°
Reaches altitude 10° 02:42:45 10° 225° (SW) 1,607 - -39.6°
Maximum altitude 02:46:13 44° 151° (SSE) 666 - -38.7°
Drops below altitude 10° 02:49:58 10° 78° (ENE) 1,732 - -37.8°
Exits shadow 02:50:16 - 77° (ENE) 1,851 9.3 -37.7°
Sets 02:52:24 0° 71° (ENE) 2,702 10.3 -37.2°
